Regional Weather Roundup
Issued by NWS

Home | Current Version | Previous Version | Graphics & Text | Print | Product List | Glossary On
Versions: 1 2 3 4 5 6 7 8 9 10 11 12 13 14 15 16 17 18 19 20 21 22 23 24 25 26 27 28 29 30 31 32 33 34 35 36 37 38 39 40 41 42 43 44 45 46 47 48 49 50
000
ASUS43 KLSX 281407
RWRMO

WEATHER SUMMARY FOR MISSOURI
NATIONAL WEATHER SERVICE SPRINGFIELD MO
800 AM CST FRI NOV 28 2014

NOTE: "FAIR" INDICATES FEW OR NO CLOUDS BELOW 12,000 FEET WITH NO
       SIGNIFICANT WEATHER AND/OR OBSTRUCTIONS TO VISIBILITY.
       CURRENT SKY AND/OR WEATHER CONDITIONS ARE NOT AVAILABLE FOR
       CHILLICOTHE AND FARMINGTON.

MOZ001>031-035>038-043-044-053-054-281500-
...NORTHERN AND WESTERN MISSOURI...

CITY           SKY/WX    TMP DP  RH WIND       PRES   REMARKS
KANSAS CTY INT MOCLDY    36  25  64 S15       29.99S WCI  27
KANSAS C DTWN  CLEAR     38  25  59 SW10      30.01F
LEE`S SUMMIT   FAIR      35  25  66 S13       30.01F WCI  26
ST JOSEPH      CLEAR     32  25  75 S7        29.98F WCI  26
CHILLICOTHE      N/A     31  24  75 S6        30.03F WCI  25
KIRKSVILLE     CLEAR     27  23  85 S10       30.05F WCI  17

$$
MOZ066>068-077>081-088>096-101>105-281500-
...SOUTHWEST MISSOURI...

CITY           SKY/WX    TMP DP  RH WIND       PRES   REMARKS
SPRINGFIELD    CLEAR     35  25  66 S17       30.13F WCI  25
JOPLIN         CLEAR     42  26  53 S21G29    30.09F

$$
MOZ032>034-039>042-045>050-055>058-069>072-281500-
...CENTRAL MISSOURI...

CITY           SKY/WX    TMP DP  RH WIND       PRES   REMARKS
COLUMBIA       CLEAR     31  25  78 SE10      30.11F WCI  22
JEFFERSON CITY CLEAR     33  25  72 E7        30.14F WCI  27
ROLLA          CLEAR     34  25  69 S14       30.14F WCI  25
SEDALIA        CLEAR     38  26  62 S17G26    30.05F WCI  28
WHITEMAN AFB   CLEAR     35  26  70 SW14      30.04F WCI  26
WARRENSBURG    CLEAR     36  27  69 S10G16    30.05S WCI  28
OSAGE BEACH    CLEAR     36  25  64 SE10      30.13S WCI  28

$$
MOZ051-052-059>065-281500-
...EAST CENTRAL MISSOURI...

CITY           SKY/WX    TMP DP  RH WIND       PRES   REMARKS
ST LOUIS INTL  PTCLDY    30  25  81 SE9       30.22F HAZE    WCI  22
SPIRIT OF STL  CLEAR     28  25  88 CALM      30.21F
ST CHARLES     CLEAR     27  24  89 SE7       30.22F FOG     WCI  19

$$
MOZ072>076-082>087-097>100-106>115-281500-
...SOUTH CENTRAL AND SOUTHEAST MISSOURI...

CITY           SKY/WX    TMP DP  RH WIND       PRES   REMARKS
CAPE GIRARDEAU SUNNY     30  26  85 S13       30.35F WCI  20
FARMINGTON     CLEAR     30  28  93 SE15      30.25F WCI  19
POPLAR BLUFF   SUNNY     31  27  85 S9        30.33F WCI  23
WEST PLAINS    CLEAR     30  25  81 S10       30.23F WCI  21

$$



USA.gov is the U.S. government's official web portal to all federal, state and local government web resources and services.